• Join FlightAware (Why Join?)
  • Login
  • US Flag 
02:48PM EDT


 

Airport Tracker/Info


-or-


 

Live Flight TrackerFlight Track Log ✈ EJA929 ✈ 16-Jul-2013 ✈ KGON - KIAD

Flight Track Log - Related Links

Times and Time Zones

All times are in EDT time to prevent confusion due to time zone crossing. See the EJA929 flight status page for this flight to view local times or setup timezone preferences in your user account.

Time Position Orientation Groundspeed Altitude Reporting Facility
EDT Latitude Longitude Course Direction KTS MPH feet Rate Location/Type
12:50PM 41.2972 -72.0753 213° Southwest 224 258 1,500  Level Boston Center
12:52PM 41.2058 -72.1531 213° Southwest 261 300 5,500 2,580 Climbing Boston Center
12:53PM 41.1394 -72.2114 213° Southwest 277 319 8,100 2,700 Climbing Boston Center
12:54PM 41.0664 -72.2722 212° Southwest 299 344 10,900 2,640 Climbing Boston Center
12:55PM 41.0083 -72.3575 228° Southwest 304 350 13,400 2,220 Climbing Boston Center
12:56PM 40.9644 -72.4539 239° Southwest 312 359 15,400 1,860 Climbing Boston Center
12:57PM 40.9122 -72.5583 237° Southwest 325 374 17,200 1,500 Climbing Boston Center
12:58PM 40.8600 -72.6733 239° Southwest 350 403 18,500 1,380 Climbing Boston Center
01:00PM 40.7489 -72.9050 238° Southwest 393 452 21,500 1,500 Climbing New York Center
01:01PM 40.6858 -73.0428 239° Southwest 398 458 23,100 1,200 Climbing New York Center
01:02PM 40.6439 -73.1642 246° West 408 470 24,000 420 Climbing New York Center
01:03PM 40.5881 -73.3344 247° West 443 510 24,000  Level New York Center
01:04PM 40.5389 -73.4800 246° West 479 551 24,000  Level New York Center
01:05PM 40.4783 -73.6606 246° West 497 572 24,000 -120 Level New York Center
01:06PM 40.4242 -73.8300 247° West 497 572 23,800 -960 Descending New York Center
01:07PM 40.3986 -74.0006 259° West 497 572 22,100 -900 Descending New York Center
01:08PM 40.4003 -74.1694 271° West 482 555 22,000 -60 Descending New York Center
01:09PM 40.3972 -74.3383 269° West 477 549 22,000  Level New York Center
01:10PM 40.3900 -74.5042 267° West 472 543 22,000 -600 Level New York Center
01:11PM 40.3658 -74.6717 259° West 472 543 20,800 -1,500 Descending New York Center
01:12PM 40.3436 -74.8394 260° West 472 543 19,100 -960 Descending New York Center
01:13PM 40.3189 -75.0039 259° West 472 543 19,000 -60 Descending New York Center
01:14PM 40.2942 -75.1656 259° West 461 531 19,000  Level New York Center
01:15PM 40.2694 -75.3275 259° West 461 531 19,000  Level New York Center
01:16PM 40.2472 -75.4700 258° West 456 525 19,000  Level New York Center
01:17PM 40.2239 -75.6289 259° West 456 525 19,000  Level New York Center
01:18PM 40.1958 -75.8036 258° West 450 518 19,000  Level New York Center
01:19PM 40.1703 -75.9619 258° West 445 512 19,000 -60 Level New York Center
01:20PM 40.1364 -76.1142 254° West 445 512 18,900 -900 Descending New York Center
01:21PM 40.0775 -76.2617 242° Southwest 452 520 17,300 -1,740 Descending New York Center
01:22PM 40.0183 -76.4089 242° Southwest 461 531 15,500 -1,200 Descending New York Center
01:23PM 39.9664 -76.5347 242° Southwest 452 520 15,000 -180 Descending New York Center
01:25PM 39.8333 -76.8667 243° Southwest 446 513 15,100  Climbing Potomac TRACON
01:26PM 39.7667 -77.0167 240° Southwest 452 520 15,100 -1,020 Level Potomac TRACON
01:27PM 39.7167 -77.1667 247° West 443 510 13,100 -2,340 Descending Potomac TRACON
01:28PM 39.6500 -77.2833 233° Southwest 400 460 10,500 -1,680 Descending Potomac TRACON
01:29PM 39.5500 -77.3333 201° Southwest 302 348 9,600 -1,200 Descending Potomac TRACON
01:30PM 39.4833 -77.3667 201° Southwest 303 349 8,100 -1,440 Descending Potomac TRACON
01:31PM 39.4000 -77.3667 180° South 296 341 6,900 -1,200 Descending Potomac TRACON
01:32PM 39.3167 -77.3667 180° South 282 325 5,700 -1,080 Descending Potomac TRACON
01:33PM 39.2333 -77.3667 180° South 283 326 4,800 -840 Descending Potomac TRACON
01:34PM 39.1667 -77.3667 180° South 243 280 4,100 -360 Descending Potomac TRACON
01:35PM 39.1000 -77.3667 180° South 246 283 4,100  Level Potomac TRACON
01:36PM 39.0333 -77.3667 180° South 248 285 4,100  Level Potomac TRACON
01:37PM 38.9667 -77.3667 180° South 242 278 4,100 -360 Level Potomac TRACON
01:38PM 38.9167 -77.3667 180° South 204 235 3,400 -540 Descending Potomac TRACON
01:39PM 38.8500 -77.3667 180° South 199 229 3,100 -600 Descending Potomac TRACON
01:40PM 38.8167 -77.4000 218° Southwest 210 242 2,200 -780 Descending Potomac TRACON
01:41PM 38.8500 -77.4333 322° Northwest 181 208 1,600 -600 Descending Potomac TRACON
01:42PM 38.8833 -77.4333 360° North 139 160 1,100 -600 Descending Potomac TRACON
01:44PM 38.9333 -77.4500 349° North  Level FlightAware Approximate
01:51PM 38.9474 -77.4599 349° North  Level Estimated
01:52PM 38.9474 -77.4599 349° North  Level Estimated
01:53PM 38.9474 -77.4599 349° North  Level Estimated
01:54PM 38.9474 -77.4599 349° North  Level Estimated